Вернуться в каталог

STARLINK-32087

АктивенСвязьVLEO
NORAD 59702·PAYLOAD·🇺🇸 United States

Запущен May 8, 2024 с Cape Canaveral Space Force Station

Loading…

Ближайшие Пролёты (ближайшие 24 часа)

TLE

СвежийSource: CelesTrak SupGP

Эпоха: Sep 14, 2026, 14:52 UTC

1 59702C 24086W   26257.61993056 -.00025104  00000+0 -90943-3 0  2572
2 59702  43.0014  72.8373 0001397 258.8620 240.7022 15.27585387    17

Отслеживайте STARLINK-32087 в реальном времени с AllMySat

Download on the App Store